[[{"header":{"parameterUnit":"m.s-1","parameterCategory":1,"la1":30.2992,"la2":30.254,"lo1":-89.0895,"lo2":-89.0443,"dy":0.0025,"dx":0.0025,"nx":19,"ny":19,"refTime":"2026-04-22T21:00:00:Z","depth":0,"parameterNumber":2,"parameterNumberName":"U-component_of_WINDS"},"data":[0,0,0,-3.2086,-3.2085,-3.2054,-3.2053,-3.2025,-3.2024,0,0,0,0,0,0,0,0,0,0,0,-3.2103,-3.2103,-3.2086,-3.2085,-3.2054,-3.2053,-3.2025,-3.2024,0,0,0,0,0,0,0,0,0,0,0,-3.2103,-3.2103,-3.2103,-3.2085,-3.2054,-3.2053,-3.2025,-3.2044,0,0,0,0,0,0,0,0,0,0,-3.2073,-3.2097,-3.2103,-3.2103,-3.2085,-3.2054,-3.2053,-3.2045,-3.2043,-3.2044,0,-3.2048,0,-3.2036,-3.2023,-3.2023,0,0,0,-3.2079,-3.2098,-3.2083,-3.2103,-3.2085,-3.2054,-3.2066,-3.2044,-3.2041,-3.2042,-3.2048,-3.2046,-3.2036,-3.2023,-3.2023,-3.2055,-3.2055,0,0,-3.2081,-3.2101,-3.2085,-3.2082,-3.2089,-3.2067,-3.2065,-3.2042,-3.205,-3.2048,-3.2045,-3.2035,-3.2023,-3.2023,-3.2054,-3.2055,0,0,0,-3.209,-3.2103,-3.2088,-3.2084,-3.2077,-3.2066,-3.2064,-3.2051,-3.2044,-3.2045,-3.2035,-3.2023,-3.2023,-3.2054,-3.2054,-3.2096,0,0,0,-3.2091,-3.2108,-3.2089,-3.2101,-3.2078,-3.2064,-3.2073,-3.2046,-3.2042,-3.2035,-3.2023,-3.2023,-3.2053,-3.2054,-3.2094,-3.2111,0,0,0,-3.2103,-3.2109,-3.2108,-3.2102,-3.2089,-3.2063,-3.2055,-3.2044,-3.2036,-3.2023,-3.2023,-3.2053,-3.2054,-3.2092,-3.2108,-3.2126,0,0,0,-3.212,-3.2144,-3.2109,-3.2132,-3.209,-3.209,-3.2055,-3.2054,-3.2048,-3.2023,-3.2053,-3.2054,-3.2091,-3.2106,-3.2124,-3.2143,-3.2154,0,0,-3.2162,-3.215,-3.2162,-3.2129,-3.2141,-3.2093,-3.2111,-3.2085,-3.2065,-3.2059,-3.206,-3.2094,-3.2108,-3.2125,-3.2207,-3.2216,0,0,0,-3.2182,-3.2191,-3.2189,-3.2185,-3.2167,-3.2153,-3.2123,-3.2114,-3.2108,-3.2067,-3.2105,-3.2113,-3.2122,-3.213,-3.2138,-3.2144,-3.2059,-3.2059,-3.2059,-3.2268,-3.2242,-3.226,-3.2231,-3.2228,-3.2197,-3.2192,-3.2174,-3.2148,-3.2158,-3.2155,-3.2208,-3.2219,-3.2224,-3.2231,-3.2164,-3.2165,-3.2165,-3.2165,-3.2325,-3.2333,-3.23,-3.2306,-3.2278,-3.2282,-3.2255,-3.2236,-3.2236,-3.2207,-3.2214,-3.2184,-3.2234,-3.2239,-3.2168,-3.2167,-3.2167,-3.2167,-3.2166,-3.2378,-3.2377,-3.2367,-3.2359,-3.2356,-3.2326,-3.2328,-3.2302,-3.2279,-3.2286,-3.228,-3.2279,-3.2275,-3.2285,-3.2285,-3.2286,-3.2286,-3.2286,-3.2286,-3.2436,-3.2423,-3.2428,-3.2413,-3.2407,-3.2397,-3.2369,-3.2362,-3.2349,-3.2331,-3.233,-3.2303,-3.2245,-3.223,-3.2289,-3.2288,-3.2288,-3.2288,-3.2287,-3.2501,-3.2483,-3.249,-3.2485,-3.2466,-3.2465,-3.2434,-3.2424,-3.2415,-3.2417,-3.2389,-3.235,-3.2336,-3.233,-3.2317,-3.2395,-3.2395,-3.2395,-3.2395,-3.2545,-3.2536,-3.2538,-3.2532,-3.2523,-3.2496,-3.2505,-3.2484,-3.2459,-3.2452,-3.2438,-3.242,-3.2415,-3.2403,-3.2395,-3.2383,-3.2476,-3.2476,-3.2476,-3.2583,-3.2573,-3.2585,-3.2561,-3.2545,-3.2531,-3.2539,-3.2533,-3.2501,-3.2479,-3.2446,-3.2443,-3.2413,-3.2405,-3.238,-3.2369,-3.2346,0,0]},{"header":{"parameterUnit":"m.s-1","parameterCategory":1,"la1":30.2992,"la2":30.254,"lo1":-89.0895,"lo2":-89.0443,"dy":0.0025,"dx":0.0025,"nx":19,"ny":19,"refTime":"2026-04-22T21:00:00:Z","depth":0,"parameterNumber":3,"parameterNumberName":"V-component_of_WINDS"},"data":[0,0,0,4.6005,4.6005,4.6,4.6,4.5986,4.5986,0,0,0,0,0,0,0,0,0,0,0,4.6003,4.6003,4.6005,4.6005,4.6,4.6,4.5986,4.5986,0,0,0,0,0,0,0,0,0,0,0,4.6003,4.6003,4.6003,4.6005,4.6,4.6,4.5986,4.5992,0,0,0,0,0,0,0,0,0,0,4.5998,4.5994,4.6003,4.6003,4.6005,4.6,4.6,4.5993,4.5992,4.5986,0,4.5981,0,4.5983,4.5985,4.5985,0,0,0,4.6007,4.5994,4.5996,4.6003,4.6005,4.6,4.6003,4.5992,4.5991,4.5985,4.5981,4.598,4.5983,4.5985,4.5985,4.5948,4.5948,0,0,4.6007,4.6,4.5997,4.5996,4.5998,4.6003,4.6003,4.5992,4.5986,4.5981,4.598,4.5983,4.5985,4.5984,4.5949,4.5948,0,0,0,4.6007,4.6,4.6003,4.5996,4.5996,4.6003,4.6002,4.5987,4.5988,4.598,4.5983,4.5985,4.5984,4.5949,4.5949,4.5931,0,0,0,4.6007,4.6,4.6003,4.5998,4.5996,4.5992,4.5997,4.5989,4.5988,4.5983,4.5985,4.5984,4.5949,4.5949,4.5932,4.5923,0,0,0,4.6005,4.6,4.5999,4.5998,4.5996,4.5992,4.5993,4.5989,4.599,4.5985,4.5984,4.5949,4.5949,4.5933,4.5924,4.5912,0,0,0,4.6,4.5981,4.5998,4.5978,4.5996,4.5982,4.5993,4.5982,4.5976,4.5984,4.5949,4.5949,4.5933,4.5925,4.5913,4.59,4.5895,0,0,4.5972,4.5977,4.5966,4.5981,4.5963,4.5983,4.5961,4.596,4.5965,4.5953,4.5952,4.5931,4.5925,4.5912,4.5865,4.586,0,0,0,4.5955,4.5947,4.5943,4.5938,4.5939,4.5939,4.5943,4.5943,4.5934,4.5958,4.5924,4.592,4.5913,4.5907,4.5903,4.5898,4.5946,4.5946,4.5946,4.5905,4.5914,4.5896,4.5905,4.59,4.5906,4.5902,4.5903,4.5912,4.5904,4.59,4.5871,4.5864,4.5861,4.5855,4.5894,4.5894,4.5894,4.5894,4.5865,4.5855,4.587,4.5858,4.5867,4.5857,4.5862,4.5869,4.586,4.5873,4.5868,4.5882,4.5855,4.5851,4.5893,4.5893,4.5893,4.5893,4.5893,4.5832,4.583,4.5832,4.5827,4.5822,4.5831,4.5823,4.5832,4.5839,4.5833,4.5831,4.5831,4.5833,4.5832,4.5832,4.5832,4.5832,4.5832,4.5831,4.5798,4.5801,4.5794,4.5796,4.5794,4.5794,4.5801,4.5799,4.58,4.5807,4.5807,4.5816,4.5852,4.586,4.583,4.583,4.583,4.5831,4.5831,4.5754,4.5766,4.5755,4.5754,4.5757,4.5752,4.5764,4.576,4.5761,4.5756,4.5768,4.5793,4.5798,4.5801,4.5808,4.5766,4.5766,4.5766,4.5766,4.5726,4.5731,4.5723,4.5721,4.572,4.5731,4.5717,4.5723,4.573,4.5731,4.5738,4.5749,4.5752,4.5755,4.5759,4.5766,4.5714,4.5714,4.5714,4.57,4.5705,4.5692,4.5702,4.5705,4.5708,4.5696,4.5692,4.5703,4.5712,4.5731,4.5734,4.5751,4.5756,4.5764,4.577,4.5783,0,0]}]]